Home > Weather > Christchurch > Past weeks

Flag for New Zealand Weather for the Past 2 Weeks in Christchurch, New Zealand

Now
72 °F

Mild.


Feels Like: 77 °F
Forecast: 49 / 67 °F
Wind: 14 mph from Northeast

Location: Christchurch Airport

Current Time: May 4, 2016 at 12:38:53 PM

Latest Report: May 4, 2016 at 12:00 PM


Visibility: N/A

Pressure: 29.92 "Hg

Humidity: 47%

Dew Point: 50 °F

Location of ChristchurchLocation

Historic Weather in Christchurch — Graph

°F

Christchurch Temperature Yesterday

Maximum temperature yesterday: 73 °F (at 2:30 AM)
Minimum temperature yesterday: 54 °F (at 11:00 PM)
Average temperature yesterday: 63 °F

High & Low Weather Summary for the Past Weeks

 TemperatureHumidityPressure
High73 °F (Apr 23, 2:30 PM)100% (Apr 19, 10:30 PM)30.45 "Hg (Apr 19, 10:30 PM)
Low34 °F (Apr 29, 6:00 AM)30% (May 3, 6:00 AM)29.62 "Hg (Apr 23, 3:30 PM)
Average53 °F80%30.09 "Hg
* Reported Apr 19 11:30 AM — May 4 11:00 AM, Christchurch, Weather by CustomWeather, © 2016

Note: Actual official high and low records may vary slightly from our data, if they occured in-between our weather recording intervals... More about our weather records

Advertising

Christchurch Weather History for the Previous 24 Hours

Scroll right to see more
 ConditionsComfort  
Time TempWeatherWind HumidityBarometerVisibility
11:00 AM
Wed, May 4
70 °FMild.9 mph53%29.92 "HgN/A
10:30 AM70 °FMild.9 mph57%29.95 "HgN/A
10:00 AM70 °FMild.10 mph57%29.95 "HgN/A
9:30 AM68 °FMild.13 mph64%29.95 "HgN/A
9:00 AM66 °FPassing clouds.10 mph68%29.95 "HgN/A
8:30 AM63 °FPassing clouds.9 mph73%29.95 "HgN/A
8:00 AM55 °FCool.5 mph94%29.95 "HgN/A
7:30 AM54 °FPassing clouds.2 mph100%29.95 "HgN/A
7:00 AM54 °FCool.6 mph100%29.92 "HgN/A
6:30 AM54 °FCool.3 mph100%29.95 "Hg6 mi
6:00 AM54 °FCool.2 mph100%29.95 "Hg6 mi
5:30 AM54 °FCool.5 mph100%29.95 "HgN/A
5:00 AM52 °FCool.3 mph100%29.95 "HgN/A
4:30 AM52 °FCool.5 mph100%29.95 "Hg6 mi
4:00 AM50 °FLight fog.3 mph100%29.95 "Hg1 mi
3:30 AM50 °FCool.5 mph100%29.95 "Hg4 mi
3:00 AM52 °FPassing clouds.6 mph100%29.95 "Hg5 mi
2:30 AM50 °FFog.2 mph100%29.95 "Hg0 mi
2:00 AM52 °FCool.5 mph100%29.98 "Hg4 mi
1:30 AM50 °FFog.5 mph100%29.98 "Hg1 mi
1:00 AM52 °FCool.2 mph100%29.98 "Hg4 mi
12:30 AM54 °FCool.5 mph94%29.98 "HgN/A
12:00 AM52 °FCool.6 mph100%29.98 "HgN/A
11:30 PM
Tue, May 3
54 °FCool.6 mph94%30.01 "HgN/A
11:00 PM54 °FCool.6 mph94%30.01 "HgN/A
10:30 PM55 °FCool.6 mph94%30.01 "HgN/A
10:00 PM55 °FCool.7 mph94%30.01 "HgN/A
9:30 PM55 °FCool.10 mph100%30.01 "HgN/A
9:00 PM57 °FCool.9 mph94%30.01 "HgN/A
8:30 PM57 °FCool.9 mph94%30.01 "HgN/A
8:00 PM57 °FCool.12 mph88%29.98 "HgN/A
7:30 PM57 °FCool.14 mph88%29.98 "HgN/A
7:00 PM57 °FCool.13 mph88%29.98 "HgN/A
6:30 PM57 °FCool.14 mph88%29.98 "HgN/A
6:00 PM57 °FCool.15 mph88%29.98 "HgN/A
5:30 PM57 °FCool.15 mph82%29.98 "HgN/A
5:00 PM59 °FCool.15 mph77%29.98 "HgN/A
4:30 PM61 °FCool.16 mph72%29.98 "HgN/A
3:30 PM63 °FMild.15 mph64%29.95 "HgN/A
3:00 PM64 °FMild.14 mph60%29.98 "HgN/A
2:30 PM66 °FMild.14 mph52%29.98 "HgN/A
1:30 PM70 °FMild.14 mph46%29.98 "HgN/A
1:00 PM70 °FMild.16 mph40%29.98 "HgN/A
12:30 PM70 °FMild.14 mph40%29.98 "HgN/A
12:00 PM70 °FMild.10 mph43%30.01 "HgN/A
Weather by CustomWeather, © 2016

See weather overviewHow to use our weather pages